User: anonymous   Login
Location: Norwich
(52.6280°N, 1.3030°E)
Time: 04:35:24
(UTC+01:00)
Language:

APEX - Orbit

View from above orbital plane
View from above orbital plane
View from above satellite
View from above satellite

Ground track
Ground track

The orbit data is extracted from the following two-line orbital elements,

1 23191U 94046A   17175.52695402 +.00003215 +00000-0 +10854-3 0  9995
2 23191 069.9221 202.6010 0605900 235.9063 118.3159 14.38068510117616
Epoch (UTC): 24 June 2017 12:38:48
Eccentricity: 0.0605900
inclination: 69.9221°
perigee height: 332 km
apogee height: 1197 km
right ascension of ascending node: 202.6010°
argument of perigee: 235.9063°
revolutions per day: 14.38068510
mean anomaly at epoch: 118.3159°
orbit number at epoch: 11761

The dashed part of the orbit path shows where the satellite is in the earth's shadow,  

DLR